DW9799 Weather Reports


Display with metric or nautical units.
time (UTC)temp
F
wind
direction
speed
MPH
gust
MPH
rain 1hr
in
rain 24hr
in
rain mn
in
humidity
%
barometer
mb
20181018080811 31 170 7.0 8.0 0.00 0.00 0.00 82 1027.4
20181018075809 31 170 7.0 8.0 0.00 0.00 0.00 82 1027.4
20181018074808 31 171 6.0 7.0 0.00 0.00 0.00 81 1027.8
20181018073807 32 170 5.0 6.0 0.00 0.00 0.00 81 1027.8
20181018072806 32 170 5.0 6.0 0.00 0.00 0.00 81 1028.1
20181018071806 32 170 5.0 6.0 0.00 0.00 0.00 80 1028.1
20181018070805 32 170 4.0 5.0 0.00 0.00 0.00 80 1028.1
20181018065804 32 171 4.0 5.0 0.00 0.00 0.00 80 1028.1
20181018064803 31 171 4.0 6.0 0.00 0.00 0.00 81 1028.4
20181018063803 30 183 4.0 5.0 0.00 0.00 0.00 81 1028.4
20181018062802 30 184 4.0 5.0 0.00 0.00 0.00 81 1028.4
20181018061801 30 184 3.0 5.0 0.00 0.00 0.00 79 1028.4
20181018060801 31 184 3.0 4.0 0.00 0.00 0.00 77 1028.4
20181018055800 32 184 1.0 3.0 0.00 0.00 0.00 77 1028.4
20181018054759 32 184 1.0 2.0 0.00 0.00 0.00 77 1028.4
20181018053759 32 184 2.0 5.0 0.00 0.00 0.00 76 1028.8
20181018052757 32 184 4.0 5.0 0.00 0.00 0.00 76 1028.8
20181018051757 33 184 2.0 4.0 0.00 0.00 0.00 75 1028.4
20181018050756 32 184 2.0 5.0 0.00 0.00 0.00 76 1028.4
20181018045755 32 184 4.0 6.0 0.00 0.00 0.00 78 1028.8
20181018044754 31 184 4.0 6.0 0.00 0.00 0.00 79 1028.8
20181018043753 31 172 3.0 5.0 0.00 0.00 0.00 79 1028.8
20181018042753 31 178 4.0 5.0 0.00 0.00 0.00 77 1028.8
20181018041752 33 202 2.0 3.0 0.00 0.00 0.00 74 1029.1
20181018040751 33 202 1.0 2.0 0.00 0.00 0.00 73 1029.1
20181018035750 33 202 1.0 4.0 0.00 0.00 0.00 73 1029.1
20181018034749 33 202 2.0 4.0 0.00 0.00 0.00 74 1029.1
20181018033748 33 202 3.0 5.0 0.00 0.00 0.00 75 1029.1
20181018032748 32 209 2.0 5.0 0.00 0.00 0.00 76 1029.1
20181018031747 31 211 3.0 4.0 0.00 0.00 0.00 77 1029.1
20181018030746 31 212 3.0 4.0 0.00 0.00 0.00 77 1029.1
20181018025745 32 213 2.0 3.0 0.00 0.00 0.00 75 1029.1
20181018024745 32 213 2.0 4.0 0.00 0.00 0.00 75 1029.1
20181018023744 33 216 3.0 4.0 0.00 0.00 0.00 73 1029.1
20181018022743 34 263 0.0 0.0 0.00 0.00 0.00 71 1029.1
20181018021742 34 263 0.0 1.0 0.00 0.00 0.00 71 1028.8
20181018020741 34 263 1.0 2.0 0.00 0.00 0.00 70 1028.8
20181018015740 34 263 2.0 2.0 0.00 0.00 0.00 70 1028.8
20181018014739 35 263 0.0 0.0 0.00 0.00 0.00 69 1028.8
20181018013738 35 263 0.0 0.0 0.00 0.00 0.00 69 1028.8
20181018012737 36 263 0.0 0.0 0.00 0.00 0.00 65 1028.8
20181018011736 36 263 0.0 0.0 0.00 0.00 0.00 67 1028.8
20181018010736 36 263 0.0 0.0 0.00 0.00 0.00 65 1028.8
20181018005734 37 263 0.0 0.0 0.00 0.00 0.00 65 1028.8
20181018004733 37 277 0.0 0.0 0.00 0.00 0.00 64 1028.8
20181018003732 37 277 0.0 0.0 0.00 0.00 0.00 63 1028.8
20181018002731 38 337 0.0 0.0 0.00 0.00 0.00 61 1028.8
20181018001730 39 337 0.0 0.0 0.00 0.00 0.00 59 1028.8
20181018000729 39 337 0.0 0.0 0.00 0.00 0.00 61 1028.4
20181017235729 40 337 0.0 0.0 0.00 0.00 0.00 57 1028.4
20181017234728 41 337 0.0 0.0 0.00 0.00 0.00 57 1028.4
20181017233727 42 337 0.0 0.0 0.00 0.00 0.00 53 1028.4
20181017232726 43 337 0.0 0.0 0.00 0.00 0.00 54 1028.4
20181017231726 44 337 0.0 0.0 0.00 0.00 0.00 54 1028.4
20181017230725 44 337 0.0 4.0 0.00 0.00 0.00 50 1028.4
20181017225724 45 337 2.0 5.0 0.00 0.00 0.00 48 1028.4
20181017224723 45 323 4.0 8.0 0.00 0.00 0.00 46 1028.4
20181017223721 46 319 5.0 9.0 0.00 0.00 0.00 44 1028.4
20181017222720 47 323 5.0 9.0 0.00 0.00 0.00 42 1028.4
20181017221718 47 320 5.0 9.0 0.00 0.00 0.00 42 1028.4
20181017220717 48 328 7.0 9.0 0.00 0.00 0.00 42 1028.4
20181017215717 48 329 6.0 11.0 0.00 0.00 0.00 42 1028.8
20181017214716 48 325 4.0 13.0 0.00 0.00 0.00 42 1028.8
20181017213715 48 351 9.0 12.0 0.00 0.00 0.00 43 1028.8
20181017212714 48 302 4.0 9.0 0.00 0.00 0.00 43 1028.4
20181017211713 48 320 4.0 11.0 0.00 0.00 0.00 43 1028.4
20181017210712 48 321 6.0 10.0 0.00 0.00 0.00 44 1028.4
20181017205711 48 324 7.0 15.0 0.00 0.00 0.00 42 1028.4
20181017204711 47 348 9.0 13.0 0.00 0.00 0.00 43 1028.4
20181017203710 47 319 7.0 13.0 0.00 0.00 0.00 43 1028.4
20181017202709 48 330 8.0 12.0 0.00 0.00 0.00 40 1028.4
20181017201708 47 296 6.0 12.0 0.00 0.00 0.00 42 1028.4
20181017200707 47 338 9.0 14.0 0.00 0.00 0.00 43 1028.4
20181017195706 47 351 9.0 16.0 0.00 0.00 0.00 41 1028.4
20181017194705 47 347 9.0 12.0 0.00 0.00 0.00 42 1028.4
20181017193704 47 358 9.0 16.0 0.00 0.00 0.00 42 1028.4
20181017192703 46 342 10.0 16.0 0.00 0.00 0.00 44 1028.8
20181017191702 46 339 9.0 20.0 0.00 0.00 0.00 42 1028.8
20181017190701 46 354 6.0 14.0 0.00 0.00 0.00 46 1028.8
20181017185700 45 326 10.0 20.0 0.00 0.00 0.00 46 1028.8
20181017184659 45 319 7.0 16.0 0.00 0.00 0.00 46 1029.1
20181017183658 45 326 11.0 19.0 0.00 0.00 0.00 45 1029.1
20181017182657 44 345 12.0 21.0 0.00 0.00 0.00 47 1028.8
20181017181652 44 327 12.0 21.0 0.00 0.00 0.00 48 1028.8
20181017180651 44 320 6.0 18.0 0.00 0.00 0.00 50 1028.8
20181017175650 44 326 10.0 16.0 0.00 0.00 0.00 50 1028.8
20181017174649 43 326 10.0 20.0 0.00 0.00 0.00 53 1028.8
20181017173649 43 349 12.0 19.0 0.00 0.00 0.00 54 1028.8
20181017172647 42 346 15.0 20.0 0.00 0.00 0.00 56 1028.8
20181017171647 42 339 14.0 21.0 0.00 0.00 0.00 56 1028.8
20181017170646 42 348 16.0 23.0 0.00 0.00 0.00 57 1028.8
20181017165645 42 336 15.0 22.0 0.00 0.00 0.00 58 1028.4
20181017164643 42 350 15.0 23.0 0.00 0.00 0.00 59 1028.4
20181017163643 41 346 14.0 20.0 0.00 0.00 0.00 61 1028.4
20181017162642 41 343 10.0 19.0 0.00 0.00 0.00 61 1028.4
20181017161641 40 339 13.0 22.0 0.00 0.00 0.00 61 1028.1
20181017160640 40 349 14.0 20.0 0.00 0.00 0.00 61 1028.1
20181017155639 40 344 18.0 24.0 0.00 0.00 0.00 61 1028.1
20181017154639 40 340 14.0 21.0 0.00 0.00 0.00 62 1028.1
20181017153637 39 349 14.0 22.0 0.00 0.00 0.00 62 1027.8
20181017152636 39 348 14.0 20.0 0.00 0.00 0.00 63 1027.8
20181017151635 38 350 14.0 19.0 0.00 0.00 0.00 64 1027.4
20181017150635 38 351 11.0 20.0 0.00 0.00 0.00 65 1027.4
20181017145634 37 351 11.0 15.0 0.00 0.00 0.00 67 1027.4
20181017144633 37 355 12.0 18.0 0.00 0.00 0.00 69 1027.4
20181017143632 36 338 10.0 14.0 0.00 0.00 0.00 72 1027.1
20181017142631 35 344 11.0 16.0 0.00 0.00 0.00 74 1027.4
20181017141630 34 336 11.0 18.0 0.00 0.00 0.00 76 1026.8
20181017140629 33 330 12.0 19.0 0.00 0.00 0.00 79 1026.8
20181017135628 32 325 7.0 12.0 0.00 0.00 0.00 81 1026.4
20181017134627 32 323 6.0 13.0 0.00 0.00 0.00 82 1026.4
20181017133626 31 316 6.0 13.0 0.00 0.00 0.00 83 1026.4
20181017132625 30 323 6.0 9.0 0.00 0.00 0.00 84 1026.1
20181017131624 30 324 4.0 10.0 0.00 0.00 0.00 84 1026.1
20181017130624 30 318 4.0 7.0 0.00 0.00 0.00 84 1025.7
20181017125622 30 322 4.0 7.0 0.00 0.00 0.00 84 1025.7
20181017124621 30 318 2.0 6.0 0.00 0.00 0.00 84 1025.4
20181017123620 30 305 1.0 4.0 0.00 0.00 0.00 84 1025.4
20181017122620 31 299 3.0 5.0 0.00 0.00 0.00 84 1025.1
20181017121619 31 281 4.0 6.0 0.00 0.00 0.00 84 1025.1
20181017120618 31 312 3.0 6.0 0.00 0.00 0.00 84 1025.1
20181017115617 31 334 1.0 6.0 0.00 0.00 0.00 84 1024.7
20181017114616 31 311 3.0 7.0 0.00 0.00 0.00 84 1024.7
20181017113616 31 317 4.0 7.0 0.00 0.00 0.00 84 1024.7
20181017112615 31 321 3.0 6.0 0.00 0.00 0.00 83 1024.4
20181017111614 31 320 2.0 5.0 0.00 0.00 0.00 83 1024.4
20181017110613 31 322 4.0 7.0 0.00 0.00 0.00 83 1024.4
20181017105611 32 326 5.0 7.0 0.00 0.00 0.00 83 1024.4
20181017104610 32 329 4.0 6.0 0.00 0.00 0.00 83 1024.4
20181017103609 32 324 2.0 5.0 0.00 0.00 0.00 82 1024.4
20181017102608 32 316 3.0 8.0 0.00 0.00 0.00 82 1024.0
20181017101607 33 338 4.0 8.0 0.00 0.00 0.00 81 1024.0
20181017100607 33 337 4.0 7.0 0.00 0.00 0.00 80 1023.7
20181017095606 33 328 4.0 8.0 0.00 0.00 0.00 80 1023.4
20181017094605 33 338 5.0 7.0 0.00 0.00 0.00 79 1023.4
20181017093605 34 334 5.0 9.0 0.00 0.00 0.00 78 1023.4
20181017092604 34 343 6.0 8.0 0.00 0.00 0.00 76 1023.0
20181017091604 35 329 5.0 7.0 0.00 0.00 0.00 75 1023.0
20181017090602 36 326 3.0 8.0 0.00 0.00 0.00 75 1022.7
20181017085601 36 329 6.0 10.0 0.00 0.00 0.00 74 1022.4
20181017084601 36 328 7.0 15.0 0.00 0.00 0.00 73 1022.4
20181017083600 37 332 5.0 8.0 0.00 0.00 0.00 73 1022.0
20181017082559 37 320 6.0 12.0 0.00 0.00 0.00 73 1022.0
20181017081558 37 324 6.0 12.0 0.00 0.00 0.00 72 1022.0